Location: Aufkirchen
(47.9603°N, 11.3653°E)
Time: 07:47:41
(UTC+01:00)

Transit 4A - Pass Details

Date: 04 December 2020
Orbit: 864 x 980 km, 66.8° (Epoch: 25 January)

Event Time Altitude Azimuth Distance (km) Brightness Sun altitude
Rises 16:50:43 0° 318° (NW) 3,674 11.2 -4.9°
Reaches altitude 10° 16:53:42 10° 306° (NW) 2,711 10.7 -5.3°
Maximum altitude 16:58:47 26° 252° (WSW) 1,768 10.5 -6.1°
Drops below altitude 10° 17:03:46 10° 198° (SSW) 2,639 11.0 -6.8°
Sets 17:06:38 0° 186° (S) 3,558 11.4 -7.3°
